Location: ???????
(55.5455°N, 38.2421°E)
Time: 11:00:17
(UTC+00:00)

Daily predictions for brighter satellites

Satellite Brightness Start Highest point End
(mag) Time Altitude Azimuth Time Altitude Azimuth Time Altitude Azimuth
NOSS 2-2 (C) 3.4 13:34:40 10° SW 13:38:23 73° SE 13:42:54 10° NE
SJ-12 4.1 13:35:55 10° SSE 13:40:04 86° WSW 13:44:15 10° NNW
Okean-O 3.8 13:37:54 10° ESE 13:41:19 22° NE 13:44:45 10° N
Cosmos 1536 4.2 13:38:24 10° NNE 13:41:21 19° ENE 13:44:18 10° ESE
H-2A R/B 3.7 13:38:32 10° ESE 13:41:33 24° ENE 13:44:34 10° N
NOSS 8 (F) 4.3 13:39:48 10° WSW 13:42:52 73° NW 13:46:11 10° NE
Cosmos 332 Rocket 4.4 13:41:15 10° NNW 13:46:07 65° WSW 13:50:54 10° SSE
STARLINK-67 4.5 13:44:15 10° SSW 13:46:30 22° SSE 13:48:46 10° E
CZ-4B R/B 1.5 13:45:38 10° NNE 13:49:10 64° ESE 13:52:38 10° S
Meteor 1-28 Rocket 3.2 13:46:20 10° NNE 13:50:07 78° ESE 13:53:54 10° S
FENGYUN 3A 3.9 13:45:21 10° SSE 13:50:48 81° WSW 13:56:16 10° NNW
Lacrosse 4 Rocket 3.4 13:49:04 10° NW 13:51:33 15° N 13:54:01 10° NNE
CZ-4B R/B 3.3 13:48:22 10° SSE 13:53:43 88° WSW 13:59:13 10° NNW
CZ-4C R/B 4.1 13:53:02 10° N 13:56:03 39° WNW 13:59:02 10° SW
Cosmos 2322 4.0 13:51:31 10° S 13:57:02 52° ESE 14:02:33 10° NE
Lacrosse 5 rocket 3.4 13:54:41 10° SSE 13:57:05 15° SE 13:59:25 10° E
Genesis I 3.7 13:55:04 10° NW 13:58:49 39° NNE 14:02:30 10° E
Cosmos 2278 Rocket 2.2 13:53:47 10° NNW 13:59:28 69° NE 14:05:07 10° SE
NOSS 2-2 (E) 3.6 13:56:26 10° WSW 14:00:17 75° NW 14:04:57 11° NE
CZ-4 R/B 2.8 14:00:03 10° E 14:02:23 16° NE 14:04:44 10° NNE
Cosmos 494 Rocket 4.1 13:58:09 10° SSW 14:03:23 67° ESE 14:08:37 10° NNE
NOSS 7 (D) 3.9 14:01:32 10° NW 14:04:23 72° NE 14:07:29 10° ESE
SL-4 R/B 3.6 14:01:28 10° SSW 14:04:26 22° SSE 14:07:34 10° E
ATLAS 2AS CENTAUR R/B 3.2 13:56:50 10° SW 14:04:49 73° SE 14:12:32 11° NE
Cosmos 1666 3.9 14:03:17 10° NNE 14:06:09 20° ENE 14:09:01 10° ESE
H-2A R/B 3.6 14:02:35 10° N 14:06:14 31° WNW 14:09:51 10° WSW
Meteor 2-6 Rocket 4.5 14:02:39 10° SSE 14:07:43 44° E 14:12:53 10° NNE
Cosmos 1606 3.5 14:04:03 10° SSW 14:07:45 52° WNW 14:11:31 10° N
Cosmos 2360 Rocket 2.2 14:02:53 10° SSW 14:08:35 89° ESE 14:14:18 10° NE
YAOGAN 1 3.9 14:08:32 10° E 14:11:30 18° NE 14:14:28 10° N
Cosmos 2369 Rocket 3.4 14:08:08 10° NNW 14:12:35 23° NNE 14:16:15 13° ENE
Landsat 5 4.5 14:10:07 10° N 14:13:51 43° WNW 14:17:40 10° SW
Cosmos 1346 Rocket 3.4 14:10:56 10° NNW 14:14:51 61° W 14:18:48 10° S
Cosmos 1980 Rocket 3.7 14:10:37 10° W 14:15:29 28° NNW 14:20:22 10° NNE
Cosmos 1782 2.8 14:11:44 10° S 14:15:44 85° E 14:19:44 10° NNE
Cosmos 1733 Rocket 3.0 14:13:52 10° N 14:18:12 61° ENE 14:22:33 10° SSE
Cosmos 1269 Rocket 4.0 14:14:40 10° SSW 14:19:58 75° ESE 14:25:18 10° NNE
COSMOS 2455 3.3 14:14:48 10° WSW 14:20:45 60° NW 14:26:24 12° NE
Cosmos 1315 Rocket 2.8 14:19:20 10° S 14:23:20 77° E 14:27:25 10° NNE
Radarsat Rocket 4.5 14:18:25 10° S 14:24:26 64° WSW 14:30:15 10° NNW
Cosmos 2333 Rocket 2.5 14:20:22 10° S 14:25:56 53° ESE 14:30:56 13° NE
Meteor 1-10 Rocket 4.3 14:21:00 10° S 14:26:24 54° E 14:31:53 10° NNE
NOAA 12 4.2 14:22:01 10° SE 14:27:10 54° ENE 14:32:19 10° N
Cosmos 1689 Rocket 2.2 14:24:19 10° NNE 14:27:22 76° WNW 14:30:24 10° SSW
Helios 1A Rocket 4.1 14:23:29 10° S 14:27:28 47° W 14:31:26 10° NNW
SeaSat 1 3.7 14:25:38 16° ENE 14:28:03 22° NNE 14:31:48 10° NNW
Cosmos 1743 4.2 14:25:39 10° NNE 14:27:58 17° NE 14:27:58 17° NE
Exosat Rocket 4.3 14:24:51 10° SSE 14:29:23 32° ESE 14:32:37 16° NE
Cosmos 2237 Rocket 3.2 14:26:16 10° SSE 14:30:56 27° ESE 14:34:00 17° ENE
Cosmos 1400 Rocket 4.1 14:27:53 10° SW 14:31:46 41° WNW 14:35:38 10° N
USA 215 3.5 14:27:46 15° ENE 14:33:16 59° SSE 14:39:43 10° SW
Cosmos 2322 Rocket 3.1 14:29:13 10° WSW 14:34:35 44° NW 14:39:59 10° NNE
Meteor 1-11 Rocket 3.8 14:30:04 10° NNW 14:36:06 82° ENE 14:42:04 10° SSE
BREEZE-M R/B 4.2 14:35:09 10° WSW 14:40:59 39° S 14:43:38 15° ESE
SL-16 R/B 3.3 14:36:52 10° WSW 14:42:09 38° NW 14:47:17 11° NNE
CORIOLIS 4.1 14:37:49 10° SSE 14:43:17 86° ENE 14:48:46 10° NNW
Sich 1 Rocket 4.5 14:40:09 10° N 14:43:55 26° ENE 14:47:38 10° ESE
Cosmos 2219 Rocket 2.2 14:39:21 10° SSW 14:44:54 68° ESE 14:49:24 16° NE
Cosmos 1697 Rocket 4.5 14:41:00 10° WNW 14:44:59 19° NNW 14:48:41 11° NNE
Cosmos 1812 2.9 14:41:25 10° S 14:45:09 48° E 14:48:00 16° NNE
Cosmos 921 Rocket 3.4 14:41:14 10° NNW 14:45:14 38° NE 14:49:15 10° SE
Meteor 1-27 Rocket 4.0 14:40:01 10° SSE 14:45:33 50° E 14:51:14 10° NNE
Cosmos 2251 Rocket 3.9 14:41:27 10° S 14:46:26 43° ESE 14:49:49 19° NE
Cosmos 1782 Rocket 4.1 14:43:43 10° N 14:47:42 33° ENE 14:51:39 10° SE
NOSS 2-2 (D) 4.1 14:47:36 10° W 14:51:25 48° NNW 14:54:16 21° NE
Cosmos 1092 Rocket 4.3 14:49:34 10° SSE 14:55:26 43° E 15:01:17 10° NNE
Cosmos 1943 Rocket 2.8 14:50:20 10° NNW 14:55:32 35° NE 14:58:04 24° E
Cosmos 1500 3.6 14:53:46 10° NNW 14:57:32 64° W 15:01:16 10° S
RESURS DK-1 2.3 14:56:39 10° SSW 15:00:45 67° ESE 15:02:42 30° NE
Cosmos 1862 Rocket 3.5 14:57:04 10° S 15:01:23 68° E 15:05:16 13° NNE
Cosmos 1980 4.1 14:56:09 10° S 15:01:27 43° ESE 15:04:15 25° ENE
Okean O Rocket 4.0 14:58:00 10° SSW 15:01:37 25° W 15:05:16 10° NW
H-2A R/B 3.9 15:03:52 13° NNE 15:03:52 13° NNE 15:04:56 10° NNE
Cosmos 2297 3.6 14:56:21 10° NNW 15:02:05 69° NE 15:07:45 10° SE
YAOGAN 6 2.6 14:58:38 10° SSE 15:02:05 52° ENE 15:05:37 10° N
Envisat 2.9 14:57:35 10° SSE 15:02:40 81° ENE 15:07:47 10° NNW
NOSS 3-1 (C) 4.1 14:56:59 10° WNW 15:03:35 53° NNE 15:08:22 24° E
Cosmos 1703 Rocket 4.3 15:00:25 10° SSE 15:04:25 32° E 15:04:55 31° ENE
SMAP 3.8 15:01:02 10° S 15:05:37 56° W 15:10:14 10° NNW
Cosmos 2242 Rocket 3.7 15:03:31 10° S 15:07:58 54° E 15:10:57 20° NNE
ISS -0.8 15:06:03 10° WSW 15:07:59 14° SSW 15:09:53 10° S
CSL-04 Rocket 3.7 15:03:14 10° SE 15:08:19 52° ENE 15:13:30 10° N
USA 229 DEB 4.0 15:04:52 10° WNW 15:11:46 55° NNE 15:15:51 27° E
USA 229 4.0 15:04:58 10° WNW 15:11:52 55° NNE 15:15:55 27° E
COBE Rocket 3.7 15:08:30 10° NNE 15:13:11 84° ESE 15:17:51 10° SSW
Cosmos 1441 Rocket 3.1 15:09:51 10° N 15:13:42 62° ENE 15:17:28 10° SSE
H-2A R/B 3.9 15:12:04 10° S 15:15:35 42° W 15:19:08 10° NNW
Cosmos 1867 3.5 15:10:31 10° NW 15:16:00 69° NE 15:19:11 25° ESE
NOSS 3-1 (A) 4.1 15:10:24 10° WNW 15:16:56 51° NNE 15:20:43 29° ENE
Okean-O 2.9 15:12:59 10° S 15:17:25 69° WSW 15:21:52 10° NNW
NOSS 3-4 (A) 3.6 15:11:44 10° WSW 15:17:52 77° NW 15:21:44 27° NE
NOSS 3-4 (C) 3.6 15:11:50 10° WSW 15:17:58 78° NW 15:21:50 27° NE
Cosmos 1536 3.3 15:14:12 10° NNW 15:18:12 63° W 15:22:10 10° S
COSMOS 2428 2.8 15:12:49 10° SW 15:18:30 81° WNW 15:22:21 22° NNE
STARLINK-67 3.3 15:17:48 10° WSW 15:20:18 46° S 15:20:18 46° S
S3M 4.3 15:15:01 10° N 15:20:54 40° ENE 15:25:57 13° SE
CZ-4B R/B 4.2 15:18:48 10° NNW 15:21:08 17° WNW 15:23:27 10° W
Cosmos 2344 4.2 15:14:30 10° WNW 15:22:56 64° NNE 15:30:01 25° E
CSL-04 Debris 4.1 15:17:48 10° SSE 15:23:12 67° ENE 15:28:37 10° NNW
Cosmos 292 Rocket 4.2 15:21:20 10° NNW 15:26:11 65° WSW 15:30:59 10° SSE
Cosmos 1908 Rocket 3.8 15:26:52 10° NNW 15:31:16 68° W 15:35:36 10° S
Lacrosse 4 Rocket 3.2 15:28:46 10° NNW 15:31:01 18° N 15:31:01 18° N
Meteor 2-9 Rocket 4.4 15:27:07 10° N 15:32:51 50° ENE 15:36:23 22° SE
Nadezhda 4 Rocket 4.1 15:27:36 10° SSW 15:33:57 81° WNW 15:40:19 10° N
COSMO-SKYMED 1 2.6 15:34:12 55° E 15:34:26 56° E 15:38:43 10° S
Cosmos 1553 Rocket 4.0 15:28:31 10° N 15:34:49 60° ENE 15:41:08 10° SSE
Lacrosse 5 rocket 1.6 15:31:30 10° SW 15:35:36 51° SSE 15:35:45 50° SE
Genesis I 3.9 15:32:44 10° NW 15:36:33 51° SW 15:38:38 24° SSE
CZ-4 R/B 1.2 15:33:02 10° SSE 15:36:56 84° WSW 15:40:49 10° NNW
Cosmos 1666 3.5 15:38:23 10° NNW 15:42:02 49° W 15:45:39 10° S
FengYun 1-2 T 4.5 15:36:42 10° S 15:42:11 70° WSW 15:47:43 10° NNW
Cosmos 2278 Rocket 4.2 15:38:21 10° NW 15:43:10 29° WSW 15:47:59 10° SSW
SL-4 R/B 2.5 15:39:46 10° WSW 15:43:27 45° S 15:43:33 45° SSE
NOAA 11 4.0 15:39:15 10° SSE 15:44:41 73° ENE 15:50:11 10° NNW
Ariane Rocket 3.1 15:46:07 50° NE 15:46:07 50° NE 15:50:43 10° N
YAOGAN 1 2.5 15:42:44 10° SSE 15:47:05 85° WSW 15:51:27 10° NNW
Meteor 1-12 Rocket 4.4 15:45:41 10° N 15:51:28 50° ENE 15:51:29 50° ENE
Cosmos 2360 Rocket 3.7 15:48:20 10° W 15:53:18 30° NNW 15:56:23 19° NNE
Cosmos 489 Rocket 4.4 15:47:08 10° NNW 15:53:32 82° ENE 15:57:58 21° SSE
Cosmos 2026 Rocket 3.8 15:50:08 10° S 15:56:10 76° E 16:01:28 14° NNE
ATLAS 2AS CENTAUR R/B 3.4 15:48:20 10° WSW 15:56:17 58° NNW 15:59:58 33° NE
Okean 1-7 3.2 15:52:29 10° S 15:56:04 59° SSE 15:56:04 59° SSE
Elektron 3 4.5 15:54:03 10° WNW 15:57:24 81° NNE 15:57:27 81° NE
Cosmos 2369 Rocket 2.1 15:52:10 10° NNW 15:57:45 60° NE 15:58:04 59° ENE
SKYMED 3 4.4 15:58:38 89° ENE 15:58:40 89° ESE 16:03:00 10° SSW
Cosmos 1980 Rocket 4.1 15:57:44 10° NW 16:01:28 17° N 16:02:40 16° N
SL-16 R/B 2.7 15:57:47 10° S 16:02:06 42° SE 16:02:06 42° SE
Cosmos 1743 3.9 16:00:43 10° NNW 16:03:10 36° NNW 16:03:10 36° NNW
SeaSat 1 2.6 16:05:25 59° NNE 16:05:25 59° NNE 16:09:48 10° NNW
Cosmos 1417 Rocket 4.3 15:59:46 10° N 16:05:57 86° E 16:12:06 10° SSE
COSMOS 2455 4.1 16:02:34 10° WNW 16:07:50 30° NNW 16:09:32 26° NNE
Cosmos 2333 Rocket 3.1 16:04:53 10° WSW 16:10:23 44° NW 16:12:56 28° N
MOS 1 4.4 16:15:17 56° NNE 16:15:17 56° NNE 16:20:02 10° NNW
Cosmos 2237 Rocket 2.3 16:08:49 10° SW 16:14:31 75° NW 16:15:50 54° NNE
USA 215 3.2 16:15:07 58° ENE 16:16:35 86° NNW 16:23:09 10° W
IRS-1A Rocket 4.2 16:18:25 60° SE 16:19:32 82° ENE 16:25:30 10° NNW
Cosmos 2322 Rocket 4.0 16:16:01 10° WNW 16:20:08 20° NNW 16:21:48 18° N
Sich 1 Rocket 4.4 16:18:06 10° NNW 16:22:23 49° W 16:26:36 10° S
SKYMED 2 4.1 16:22:53 57° W 16:22:53 57° W 16:26:53 10° SSW
NOSS 0 Rocket 4.2 16:17:59 10° SW 16:24:09 64° NW 16:26:04 44° NNE
SL-16 R/B 4.1 16:23:57 10° WNW 16:27:54 19° NNW 16:29:09 18° N
Cosmos 2251 Rocket 4.5 16:23:42 10° SW 16:28:45 44° NW 16:30:19 35° N
Cosmos 2219 Rocket 3.4 16:24:07 10° WSW 16:29:17 36° NW 16:31:08 29° N
Exosat Rocket 4.4 16:25:49 10° WSW 16:30:40 45° NW 16:31:43 40° NNW
RESURS DK-1 4.3 16:35:36 10° W 16:38:37 26° NW 16:38:37 26° NW
Cosmos 1943 Rocket 2.3 16:34:07 10° NW 16:39:37 71° WSW 16:39:37 71° WSW
H-2A R/B 4.1 16:44:29 17° N 16:44:29 17° N 16:45:36 10° NNW
Cosmos 1980 4.3 16:40:03 10° WSW 16:45:32 50° NW 16:46:07 48° NNW
NOSS 3-1 (C) 3.9 16:47:55 10° NW 16:55:05 81° SW 16:55:48 74° SSE
USA 229 DEB 3.8 16:56:02 10° NW 17:03:10 74° SW 17:03:19 73° SW
USA 229 3.8 16:56:09 10° NW 17:03:15 74° SW 17:03:23 74° SW
COSMOS 2428 4.3 16:58:46 10° W 17:03:38 28° NNW 17:04:22 27° NNW
NOSS 3-1 (A) 3.9 17:01:26 10° NW 17:08:10 82° WNW 17:08:10 82° WNW
NOSS 3-4 (A) 4.3 17:03:33 10° W 17:09:10 44° NNW 17:09:10 44° NNW
NOSS 3-4 (C) 4.3 17:03:39 10° W 17:09:16 44° NNW 17:09:16 44° NNW
Lacrosse 4 Rocket 4.4 17:07:17 10° NW 17:07:20 10° NW 17:07:20 10° NW
Lacrosse 5 rocket 4.2 17:10:36 10° W 17:11:25 15° W 17:11:25 15° W
Cosmos 2344 4.4 17:28:54 10° NW 17:38:03 69° SW 17:40:04 60° S
Cosmos 2360 Rocket 4.5 17:35:27 10° NW 17:38:09 17° NNW 17:38:09 17° NNW
Cosmos 2369 Rocket 3.9 17:36:31 10° NW 17:39:54 29° WNW 17:39:54 29° WNW
SL-16 R/B 4.2 17:41:54 10° WSW 17:44:01 22° WSW 17:44:01 22° WSW
ATLAS 2AS CENTAUR R/B 3.8 17:40:56 10° WNW 17:47:23 44° NNW 17:47:23 44° NNW
Cosmos 2333 Rocket 4.4 17:51:55 10° WNW 17:54:57 19° NW 17:54:57 19° NW
Cosmos 2237 Rocket 4.3 17:54:45 10° W 17:57:42 23° WNW 17:57:42 23° WNW
USA 215 4.4 18:02:28 37° WNW 18:02:28 37° WNW 18:06:11 10° WNW
